This is the latest recevied weather packets stored in our database for station/object N0OQA. If no packets are shown the sender has not sent any weather packets the latest 10 day(s).
| Time | Temp. | Humidity | Pressure | Rain* | Wind** | Luminosity | Snow |
|---|---|---|---|---|---|---|---|
| 1788189933 | 23.33° C | 94% | 1013.3 hPa | 0 mm | - | - | - |
| 1788189632 | 23.33° C | 95% | 1013.2 hPa | 0 mm | - | - | - |
| 1788189331 | 23.33° C | 96% | 1013 hPa | 0 mm | - | - | - |
| 1788188730 | 23.33° C | 96% | 1012.9 hPa | 0 mm | - | - | - |
| 1788188430 | 23.33° C | 97% | 1012.8 hPa | 0 mm | - | - | - |
| 1788188130 | 23.33° C | 97% | 1012.7 hPa | 0 mm | - | - | - |
| 1788187830 | 23.33° C | 98% | 1012.6 hPa | 0 mm | - | - | - |
| 1788187529 | 23.89° C | 98% | 1012.4 hPa | 0 mm | - | - | - |
| 1788187229 | 23.89° C | 100% | 1012.4 hPa | 0 mm | - | - | - |
| 1788186929 | 23.33° C | 100% | 1012.4 hPa | 0 mm | - | - | - |
| 1788186328 | 23.33° C | 100% | 1012.4 hPa | 0 mm | - | - | - |
| 1788184827 | 22.78° C | 100% | 1012.1 hPa | 0 mm | - | - | - |
| 1788184526 | 22.78° C | 100% | 1012.1 hPa | 0 mm | - | - | - |
| 1788184226 | 22.78° C | 100% | 1012 hPa | 0 mm | - | - | - |
| 1788183325 | 22.22° C | 100% | 1011.6 hPa | 0 mm | - | - | - |
| 1788182724 | 21.67° C | 100% | 1011.6 hPa | 0 mm | - | - | - |
| 1788179718 | 21.11° C | 100% | 1011.1 hPa | 0 mm | - | - | - |
| 1788178517 | 20.56° C | 100% | 1010.6 hPa | 0 mm | - | - | - |
| 1788178217 | 20.56° C | 100% | 1010.4 hPa | 0 mm | - | - | - |
| 1788177917 | 20.56° C | 100% | 1010.3 hPa | 0 mm | - | - | - |
| 1788176415 | 21.11° C | 100% | 1010.1 hPa | 0 mm | - | - | - |
| 1788175815 | 21.11° C | 100% | 1010 hPa | 0 mm | - | - | - |
| 1788175533 | 21.11° C | 100% | 1010 hPa | 0 mm | - | - | - |
| 1788174313 | 21.11° C | 100% | 1010 hPa | 0 mm | - | - | - |
| 1788174013 | 21.67° C | 100% | 1010 hPa | 0 mm | - | - | - |
* Rain since midnight (hover to see other rain measurements)
** Current wind speed in m/s (hover to see current wind gust speed)